Location: Beaver Brook Station
(42.3793°N, 71.2203°W)
Time: 01:34:02
(UTC+00:00)

CZ-4B R/B - Pass Details

Date: 29 October 2020
Orbit: 388 x 461 km, 97.6° (Epoch: 05 December)

Event Time Altitude Azimuth Distance (km) Brightness Sun altitude
Rises 23:22:14 0° 353° (N) 2,378 5.2 -19.1°
Reaches altitude 10° 23:24:59 10° 326° (NW) 1,490 4.4 -19.6°
Maximum altitude 23:26:40 14° 294° (WNW) 1,270 4.6 -20.0°
Drops below altitude 10° 23:28:20 10° 261° (W) 1,464 5.2 -20.3°
Sets 23:31:00 0° 235° (SW) 2,303 5.9 -20.8°
